Weather History for Wright-Patt AFB, OH

Change the Weather History Date:

Friday, March 29, 2013

  Actual Average Record
Temperature  
Mean Temperature 39 °F -  
Max Temperature 54 °F 55 °F 78 °F (1998)
Min Temperature 24 °F 34 °F 23 °F (2008)
Degree Days  
Heating Degree Days 26    
Moisture  
Dew Point 27 °F    
Average Humidity 62    
Maximum Humidity 88    
Minimum Humidity 38    
Precipitation  
Precipitation 0.00 in - - ()
Sea Level Pressure  
Sea Level Pressure 30.29 in    
Wind  
Wind Speed 2 mph (West)    
Max Wind Speed 13 mph    
Max Gust Speed -    
Visibility 10 miles    
Events      
Averages and records for this station are not official NWS values.
T = Trace of Precipitation, MM = Missing Value Source: NWS Daily Summary

Daily Weather History Graph

Daily Weather History Graph

Search for Another Location

Airport:

Trip Planner

Search our weather history database for the weather conditions in past years. The results will help you decide how hot, cold, wet, or windy it might be!

Date:

Astronomy

Mar. 29, 2013 Rise Set
Actual Time 7:24 AM EDT 7:57 PM EDT
Civil Twilight 6:57 AM EDT 8:24 PM EDT
Nautical Twilight 6:25 AM EDT 8:56 PM EDT
Astronomical Twilight 5:52 AM EDT 9:29 PM EDT
Moon 10:56 PM EDT (3/29) 8:33 AM EDT (3/29)
Length of Visible Light 13h 27m
Length of Day
12h 32m
Waning Gibbous, 93% of the Moon is Illuminated
Mar 29
Waning Gibbous
Apr 3
Last Quarter
Apr 10
New
Apr 18
First Quarter
Apr 25
Full

Hourly Weather History & Observations

Time (EDT) Temp. Windchill Dew Point Humidity Pressure Visibility Wind Dir Wind Speed Gust Speed Precip Events Conditions
12:55 AM 29.8 °F - 23.4 °F 77% 30.33 in 10.0 mi Calm Calm - N/A   Clear
1:55 AM 29.8 °F - 25.0 °F 82% 30.33 in 10.0 mi Calm Calm - N/A   Clear
2:55 AM 29.3 °F - 24.4 °F 82% 30.33 in 10.0 mi Calm Calm - N/A   Clear
3:55 AM 27.5 °F - 22.8 °F 83% 30.32 in 10.0 mi Calm Calm - N/A   Clear
4:55 AM 28.0 °F - 24.6 °F 87% 30.32 in 10.0 mi Calm Calm - N/A   Clear
5:55 AM 26.2 °F - 22.8 °F 87% 30.32 in 10.0 mi Calm Calm - N/A   Clear
6:55 AM 25.5 °F - 22.5 °F 88% 30.32 in 10.0 mi Calm Calm - N/A   Scattered Clouds
7:55 AM 24.4 °F - 21.4 °F 88% 30.33 in 10.0 mi Calm Calm - N/A   Partly Cloudy
8:55 AM 30.4 °F - 26.1 °F 84% 30.34 in 10.0 mi Calm Calm - N/A   Clear
9:55 AM 37.6 °F 35.1 °F 29.1 °F 72% 30.34 in 10.0 mi South 3.5 mph - N/A   Partly Cloudy
10:55 AM 44.1 °F 42.5 °F 27.1 °F 51% 30.34 in 10.0 mi Variable 3.5 mph - N/A   Mostly Cloudy
11:55 AM 45.7 °F 41.5 °F 27.0 °F 48% 30.34 in 10.0 mi SSW 8.1 mph - N/A   Scattered Clouds
12:55 PM 47.7 °F - 27.1 °F 45% 30.32 in 10.0 mi Calm Calm - N/A   Scattered Clouds
1:55 PM 49.6 °F - 27.3 °F 42% 30.29 in 10.0 mi SW 6.9 mph - N/A   Scattered Clouds
2:30 PM 51.8 °F - 28.4 °F 41% 30.28 in 10.0 mi WSW 5.8 mph - N/A   Scattered Clouds
2:55 PM 50.5 °F - 27.7 °F 41% 30.27 in 10.0 mi WSW 4.6 mph - N/A   Partly Cloudy
3:55 PM 54.0 °F - 28.8 °F 38% 30.25 in 10.0 mi NW 8.1 mph - N/A   Partly Cloudy
4:55 PM 53.1 °F - 27.9 °F 38% 30.23 in 10.0 mi WNW 12.7 mph - N/A   Scattered Clouds
5:55 PM 51.8 °F - 28.6 °F 41% 30.23 in 10.0 mi NW 9.2 mph - N/A   Mostly Cloudy
6:55 PM 51.4 °F - 28.4 °F 41% 30.23 in 10.0 mi NW 6.9 mph - N/A   Mostly Cloudy
7:55 PM 49.3 °F - 28.9 °F 45% 30.24 in 10.0 mi NW 5.8 mph - N/A   Mostly Cloudy
8:55 PM 46.6 °F - 30.9 °F 54% 30.24 in 10.0 mi North 6.9 mph - N/A   Mostly Cloudy
9:55 PM 44.8 °F - 29.7 °F 55% 30.26 in 10.0 mi Calm Calm - N/A   Clear
10:55 PM 39.7 °F - 28.9 °F 65% 30.26 in 10.0 mi Calm Calm - N/A   Clear
11:55 PM 37.6 °F - 28.4 °F 69% 30.26 in 10.0 mi Calm Calm - N/A   Clear